Tracking 19562 objects as of 24-Mar-2019
HD Live streaming from Space Station
objects crossing your sky now

COSMOS 680

Track COSMOS 680 now!
10-day predictions
COSMOS 680 is classified as:


NORAD ID: 7438
Int'l Code: 1974-072D
Perigee: 1,473.9 km
Apogee: 1,497.8 km
Inclination: 74.0 °
Period: 115.5 minutes
Semi major axis: 7856 km
RCS: 0.7018 m2 (medium)
Launch date: September 19, 1974
Source: Commonwealth of Independent States (former USSR) (CIS)
Launch site: PLESETSK MISSILE AND SPACE COMPLEX (PKMTR)
aabbcc
Your satellite tracking list
Your tracking list is empty




NASA's NSSDC Master Catalog

Two Line Element Set (TLE):
1  7438U 74072D   19082.96567859 -.00000005 +00000-0 +73523-4 0  9997
2  7438 074.0387 016.2462 0015227 099.5076 331.7897 12.46603565025415
Source of the keplerian elements: AFSPC